Regional Weather Roundup
Issued by NWS State College, PA

Home | Current Version | Previous Version | Graphics & Text | Print | Product List | Glossary Off
Versions: 1 2 3 4 5 6 7 8 9 10 11 12 13 14 15 16 17 18 19 20 21 22 23 24 25 26 27 28 29 30 31 32 33 34 35 36 37 38 39 40 41 42 43 44 45 46 47 48 49 50

000
ASUS41 KCTP 290510
RWRCTP

REGIONAL WEATHER ROUNDUP
NATIONAL WEATHER SERVICE STATE COLLEGE PA
1200 AM EST SAT NOV 29 2014

Note: "fair" indicates few or no clouds below 12,000 feet with no
significant weather and/or obstructions to visibility.

* = STATION THAT DOES NOT REPORT PRECIPITATION /E.G. RAIN...SNOW...ETC/
    THUNDER OR FOG.

PAZ002>004-007>009-013>016-020>023-029>032-290600-
WESTERN PENNSYLVANIA

CITY           SKY/WX    TMP DP  RH WIND       PRES   REMARKS
ERIE           LGT SNOW  24  19  81 S9        30.18S WCI  14
MEADVILLE      LGT SNOW  23  19  85 S6        30.14S FOG
FRANKLIN*      CLOUDY    23  18  80 S9        30.16F WCI  13
NEW CASTLE       N/A     26  19  74 CALM      30.18F
BEAVER COUNTY  NOT AVBL
BUTLER*        CLOUDY    27  18  69 SE5       30.18F
PITTSBURGH INT CLOUDY    27  19  72 S5        30.16F
PITTSBURGH     CLOUDY    27  16  63 S8        30.16F
INDIANA*       CLOUDY    21  18  86 CALM      30.22S
LATROBE        MOCLDY    27  19  74 S3        30.21S
WASHINGTON CO* CLOUDY    27  18  69 S3        30.18S
$$

PAZ004>006-010>012-017>019-024>028-033>037-041-042-045-046-049>053-290600-
CENTRAL PENNSYLVANIA

CITY           SKY/WX    TMP DP  RH WIND       PRES   REMARKS
BRADFORD       CLOUDY    19  11  70 CALM      30.12S
DUBOIS         CLOUDY    20  13  74 CALM      30.15R
CLEARFIELD     MOCLDY    19  14  81 CALM      30.19R
JOHNSTOWN      CLOUDY    21  14  74 SW9       30.12F WCI  11
ALTOONA        CLOUDY    24  16  71 S5        30.19S
STATE COLLEGE  CLOUDY    22  15  73 CALM      30.21S
WILLIAMSPORT   PTCLDY    21  14  74 N6        30.25S WCI  13
SELINSGROVE    CLOUDY    19  15  84 CALM      30.26F
FT INDIANTOWN  MOCLDY    26  14  60 S3        30.27R
CAPITAL CITY   CLOUDY    27  16  63 CALM      30.28R
HARRISBURG     CLOUDY    25  19  78 CALM      30.27S
YORK           MOCLDY    23  17  78 CALM      30.27R
$$

PAZ038>040-043-044-047-048-054-055-060>062-067>071-290600-
EASTERN PENNSYLVANIA

CITY           SKY/WX    TMP DP  RH WIND       PRES   REMARKS
SCRANTON       PTCLDY    16   9  74 S7        30.22R WCI   6
MOUNT POCONO   MOCLDY    11   8  88 CALM      30.15R
ALLENTOWN      MOCLDY    22  15  75 N3        30.27R
QUAKERTOWN*    MOCLDY    23  18  80 CALM      30.26S
READING        CLOUDY    27  19  72 CALM      30.26S
LANCASTER      MOCLDY    26  15  63 W3        30.27S
COATESVILLE    PTCLDY    25  16  68 W3        30.26S
POTTSTOWN      MOCLDY    24  18  77 CALM      30.28S
BLUE BELL      PTCLDY    27  23  86 CALM      30.27S
DOYLESTOWN       N/A     22  18  85 MISG      30.27R
WILLOW GROVE   NOT AVBL
NORTH PHILA    PTCLDY    29  16  58 NW3       30.30R
PHILADELPHIA   MOCLDY    30  16  56 W3        30.30R
$$


USA.gov is the U.S. government's official web portal to all federal, state and local government web resources and services.